TimeCST,TemperatureF,Dew PointF,Humidity,Sea Level PressureIn,VisibilityMPH,Wind Direction,Wind SpeedMPH,Gust SpeedMPH,PrecipitationIn,Events,Conditions,WindDirDegrees,DateUTC
12:15 AM,43.2,35.6,75,29.94,10.0,SSE,11.5,-,N/A,Rain,Light Rain,160,2012-12-15 06:15:00
12:35 AM,42.8,35.6,76,29.93,10.0,SSE,10.4,-,N/A,Rain,Light Rain,160,2012-12-15 06:35:00
12:55 AM,41.7,37.4,85,29.92,10.0,South,9.2,-,N/A,Rain,Light Rain,170,2012-12-15 06:55:00
1:15 AM,41.2,37.4,86,29.90,10.0,SSE,9.2,-,N/A,Rain,Light Rain,150,2012-12-15 07:15:00
1:35 AM,41.2,37.4,86,29.90,10.0,SSE,9.2,-,N/A,Rain,Light Rain,160,2012-12-15 07:35:00
1:55 AM,41.0,37.4,87,29.91,10.0,SSE,10.4,-,0.02,Rain,Light Rain,160,2012-12-15 07:55:00
2:15 AM,40.6,38.3,91,29.90,7.0,SSE,9.2,-,0.02,Rain,Rain,150,2012-12-15 08:15:00
2:35 AM,39.7,39.4,99,29.89,10.0,SSE,10.4,-,0.03,Rain,Light Rain,150,2012-12-15 08:35:00
2:55 AM,39.7,39.7,100,29.88,7.0,SSE,10.4,-,0.07,Rain,Rain,150,2012-12-15 08:55:00
3:15 AM,40.1,40.1,100,29.87,5.0,SSE,13.8,20.7,0.05,Rain,Rain,150,2012-12-15 09:15:00
3:35 AM,40.1,40.1,100,29.84,5.0,SE,16.1,-,0.14,Rain,Rain,140,2012-12-15 09:35:00
3:55 AM,40.1,40.1,100,29.82,7.0,SE,19.6,24.2,0.20,Rain,Light Rain,140,2012-12-15 09:55:00
4:15 AM,40.1,40.1,100,29.80,5.0,SE,18.4,23.0,0.01,Rain,Light Rain,140,2012-12-15 10:15:00
4:35 AM,40.3,40.3,100,29.79,5.0,SE,16.1,23.0,0.01,Rain,Rain,140,2012-12-15 10:35:00
4:55 AM,40.8,40.8,100,29.78,5.0,SSE,16.1,24.2,0.08,Rain,Light Rain,150,2012-12-15 10:55:00
5:15 AM,40.6,40.6,100,29.74,4.0,SE,20.7,-,0.04,Rain,Light Rain,130,2012-12-15 11:15:00
5:35 AM,41.0,41.0,100,29.75,7.0,SSE,18.4,23.0,0.06,Rain,Light Rain,150,2012-12-15 11:35:00
5:55 AM,41.0,41.0,100,29.73,7.0,SSE,16.1,23.0,0.06,,Overcast,150,2012-12-15 11:55:00
6:15 AM,41.9,41.9,100,29.72,7.0,SE,21.9,28.8,N/A,Rain,Light Rain,140,2012-12-15 12:15:00
6:35 AM,43.0,43.0,100,29.72,5.0,SSE,20.7,31.1,0.01,Rain,Light Rain,160,2012-12-15 12:35:00
6:55 AM,43.0,43.0,100,29.72,5.0,SSE,16.1,20.7,0.01,,Overcast,160,2012-12-15 12:55:00
7:15 AM,43.2,43.2,100,29.71,3.0,SSE,17.3,-,N/A,,Light Drizzle,160,2012-12-15 13:15:00
7:35 AM,43.7,43.7,100,29.70,5.0,SSE,13.8,-,N/A,,Overcast,160,2012-12-15 13:35:00
7:55 AM,43.9,43.9,100,29.70,5.0,SSE,17.3,20.7,N/A,,Overcast,160,2012-12-15 13:55:00
8:15 AM,44.2,44.2,100,29.70,4.0,SSE,16.1,-,N/A,,Light Drizzle,160,2012-12-15 14:15:00
8:35 AM,44.6,44.6,100,29.70,5.0,SSE,13.8,19.6,N/A,,Overcast,160,2012-12-15 14:35:00
8:55 AM,44.6,44.6,100,29.69,7.0,SSE,15.0,-,N/A,,Overcast,150,2012-12-15 14:55:00
9:15 AM,44.8,44.8,100,29.67,7.0,SSE,13.8,19.6,N/A,,Overcast,160,2012-12-15 15:15:00
9:35 AM,45.1,45.1,100,29.66,7.0,SSE,16.1,19.6,N/A,,Overcast,160,2012-12-15 15:35:00
9:55 AM,45.5,45.5,100,29.65,7.0,SSE,15.0,20.7,N/A,Rain,Light Rain,160,2012-12-15 15:55:00
10:15 AM,45.7,45.7,100,29.64,5.0,SSE,15.0,-,N/A,,Overcast,150,2012-12-15 16:15:00
10:35 AM,46.4,46.4,100,29.63,5.0,SSE,15.0,-,N/A,,Overcast,160,2012-12-15 16:35:00
10:55 AM,46.6,46.6,100,29.62,3.0,South,13.8,19.6,0.01,Rain,Light Rain,170,2012-12-15 16:55:00
11:15 AM,46.4,46.4,100,29.60,4.0,South,13.8,19.6,N/A,Rain,Light Rain,170,2012-12-15 17:15:00
11:35 AM,47.7,47.7,100,29.59,4.0,SSE,13.8,-,N/A,Rain,Light Rain,160,2012-12-15 17:35:00
11:55 AM,48.2,48.2,100,29.59,5.0,South,17.3,20.7,0.01,,Overcast,180,2012-12-15 17:55:00
12:15 PM,48.2,48.2,100,29.58,4.0,South,16.1,-,N/A,,Overcast,180,2012-12-15 18:15:00
12:35 PM,48.2,48.2,100,29.58,3.0,SSW,15.0,-,N/A,,Drizzle,200,2012-12-15 18:35:00
12:55 PM,48.2,48.2,100,29.57,3.0,South,10.4,-,N/A,,Drizzle,180,2012-12-15 18:55:00
1:15 PM,48.2,48.2,100,29.56,4.0,South,11.5,16.1,N/A,,Overcast,190,2012-12-15 19:15:00
1:35 PM,48.7,48.7,100,29.56,10.0,South,10.4,-,N/A,,Overcast,190,2012-12-15 19:35:00
1:55 PM,49.1,49.1,100,29.56,10.0,South,11.5,-,N/A,,Overcast,190,2012-12-15 19:55:00
2:15 PM,49.3,49.3,100,29.56,10.0,South,10.4,-,N/A,,Overcast,190,2012-12-15 20:15:00
2:35 PM,49.3,49.3,100,29.56,10.0,South,8.1,-,N/A,,Overcast,190,2012-12-15 20:35:00
2:55 PM,49.3,49.3,100,29.56,10.0,SSW,9.2,-,N/A,,Overcast,200,2012-12-15 20:55:00
3:15 PM,49.3,49.3,100,29.57,10.0,SSW,8.1,-,N/A,,Overcast,200,2012-12-15 21:15:00
3:35 PM,49.3,49.3,100,29.58,10.0,SSW,9.2,-,N/A,,Overcast,210,2012-12-15 21:35:00
3:55 PM,49.1,49.1,100,29.59,10.0,SSW,8.1,-,N/A,,Mostly Cloudy,210,2012-12-15 21:55:00
4:15 PM,50.0,50.0,100,29.59,10.0,SW,10.4,-,N/A,,Overcast,220,2012-12-15 22:15:00
4:35 PM,50.4,49.3,96,29.60,10.0,SW,12.7,-,N/A,,Overcast,230,2012-12-15 22:35:00
4:55 PM,50.4,46.9,88,29.60,10.0,SW,11.5,-,N/A,,Overcast,220,2012-12-15 22:55:00
5:15 PM,50.5,46.4,86,29.61,10.0,SW,12.7,-,N/A,,Overcast,220,2012-12-15 23:15:00
5:35 PM,50.9,46.2,84,29.61,10.0,SW,12.7,-,N/A,,Overcast,220,2012-12-15 23:35:00
5:55 PM,50.4,46.4,86,29.62,10.0,SW,12.7,-,N/A,,Overcast,220,2012-12-15 23:55:00
6:15 PM,50.4,46.2,86,29.63,10.0,SW,15.0,-,N/A,,Overcast,220,2012-12-16 00:15:00
6:35 PM,50.4,46.4,86,29.63,10.0,SW,9.2,-,N/A,,Overcast,230,2012-12-16 00:35:00
6:55 PM,50.2,46.4,87,29.63,10.0,SW,11.5,-,N/A,,Overcast,230,2012-12-16 00:55:00
7:15 PM,50.2,46.4,87,29.64,10.0,SW,12.7,-,N/A,,Overcast,230,2012-12-16 01:15:00
7:35 PM,50.4,45.9,85,29.64,10.0,SW,15.0,19.6,N/A,,Overcast,230,2012-12-16 01:35:00
7:55 PM,50.4,45.9,85,29.64,10.0,SW,11.5,18.4,N/A,,Overcast,230,2012-12-16 01:55:00
8:15 PM,50.0,46.0,86,29.64,10.0,SW,10.4,-,N/A,,Overcast,230,2012-12-16 02:15:00
8:35 PM,50.0,45.9,86,29.64,10.0,SW,10.4,-,N/A,,Overcast,220,2012-12-16 02:35:00
8:55 PM,50.0,46.0,86,29.65,10.0,SW,10.4,-,N/A,,Overcast,230,2012-12-16 02:55:00
9:15 PM,49.5,46.0,88,29.64,10.0,SW,10.4,-,N/A,,Overcast,230,2012-12-16 03:15:00
9:35 PM,49.3,46.0,89,29.64,10.0,SW,9.2,-,N/A,,Overcast,230,2012-12-16 03:35:00
9:55 PM,49.1,45.9,89,29.64,10.0,SW,9.2,-,N/A,,Overcast,230,2012-12-16 03:55:00
10:15 PM,49.3,45.7,87,29.65,10.0,SW,9.2,-,N/A,,Overcast,230,2012-12-16 04:15:00
10:35 PM,48.7,45.7,89,29.65,7.0,WSW,10.4,-,N/A,Rain,Light Rain,240,2012-12-16 04:35:00
10:55 PM,48.2,45.9,92,29.65,10.0,WSW,9.2,-,N/A,,Overcast,240,2012-12-16 04:55:00
11:15 PM,48.2,46.4,93,29.65,10.0,WSW,8.1,-,N/A,,Overcast,240,2012-12-16 05:15:00
11:35 PM,48.2,45.5,90,29.65,10.0,WSW,8.1,-,N/A,,Overcast,240,2012-12-16 05:35:00
11:55 PM,47.8,45.3,91,29.65,10.0,SW,9.2,-,N/A,,Overcast,230,2012-12-16 05:55:00